Weather Roundup
Issued by NWS Chicago, IL

Home | Current Version | Previous Version | Graphics & Text | Print | Product List | Glossary On
Versions: 1 2 3 4 5 6 7 8 9 10 11 12 13 14 15 16 17 18 19 20 21 22 23 24 25 26 27 28 29 30 31 32 33 34 35 36 37 38 39 40 41 42 43 44 45 46 47 48 49 50
000
NZUS59 KLOT 161712
HRRLOT

CHICAGO AREA WEATHER ROUNDUP
NATIONAL WEATHER SERVICE CHICAGO/ROMEOVILLE IL
1100 AM CST MON JAN 16 2017

NOTE: "FAIR" INDICATES FEW OR NO CLOUDS BELOW 12,000 FEET WITH NO
SIGNIFICANT WEATHER AND/OR OBSTRUCTIONS TO VISIBILITY.

* THESE STATIONS ARE NOT UNDER NWS QUALITY CONTROL. THEY ALSO MAY NOT
  REPORT WEATHER SUCH AS PRECIPITATION OR FOG.

ILZ005-006-012>014-019>023-161800-
NORTHEAST ILLINOIS

CITY           SKY/WX    TMP DP  RH WIND       PRES   REMARKS
OHARE          LGT RAIN  34  32  92 SE7       30.21F VSB 1   WCI  28
MIDWAY         LGT RAIN  35  33  92 SE6       30.22F FOG     WCI  30
AURORA         CLOUDY    35  33  92 E8        30.19F FOG     WCI  29
LANSING*       CLOUDY    34  34 100 SE5       30.22F FOG     WCI  30
JOLIET*        CLOUDY    36  35  96 SE7       30.21F FOG
WAUKEGAN       LGT RAIN  33  31  92 E5        30.22F FOG     WCI  29
DUPAGE AIRPORT RAIN      34  32  92 E7        30.19F FOG     WCI  28
WHEELING       LGT RAIN  34  32  92 SE5       30.23F FOG     WCI  30
KANKAKEE*      FOG       34  34  98 CALM      30.21F VSB 1/2
MORRIS*        CLOUDY    34  33  96 E8        30.19F FOG     WCI  27
LEWIS AIRPORT* DRIZZLE   33  33 100 SE8       30.21F WCI  27
NORTHERLY ISL    N/A     32  31  96 E6          N/A  WCI  26
$$

WIZ051-052-058>065-066-070>072-161800-
SOUTHEAST WISCONSIN

CITY           SKY/WX    TMP DP  RH WIND       PRES   REMARKS
MILWAUKEE      LGT RAIN  34  30  85 SE7       30.23F FOG     WCI  28
KENOSHA*       CLOUDY    33  30  88 E6        30.23F FOG     WCI  28
RACINE*        LGT RAIN  33  30  88 SE5       30.24F FOG     WCI  29
WAUKESHA       CLOUDY    30  28  93 E5        30.22F WCI  25
WEST BEND      CLOUDY    32  30  93 S5        30.22F WCI  27
$$

INZ001>003-010>013-019-020-161800-
NORTHWEST INDIANA

CITY           SKY/WX    TMP DP  RH WIND       PRES   REMARKS
GARY*          CLOUDY    36  34  93 CALM      30.23F FOG
MICHIGAN CITY* NOT AVBL
RENSSELAER*    NOT AVBL
VALPARAISO     FOG       35  34  96 E9        30.22F VSB 3/4 WCI  28
$$

LMZ740>746-161800-
SOUTHERN LAKE MICHIGAN

STATION/POSITION TIME  SKY/WX   TEMP WIND        PRES    VSBY
                                AIR  DIR/SP/G
                 (UTC)          (F)  (DEG/KT/KT) (MB)    (MI)
HARRISON CRIB    1640            33  130/  9/  9   N/A
BURNHAM HARBOR   1700            32  120/  3/  6   N/A
CALUMET HARBOR   1642            32   80/  5/  6 1022.9F
BURNS HARBOR     1640            35  130/  5/ 10 1024.0F
MICHIGAN CITY    1640            34  100/  9/ 11   N/A
$$

ABBREVIATIONS USED IN REMARKS
   TC - TEMPERATURE IN CELSIUS
  WCI - WIND CHILL INDEX
   HX - HEAT INDEX
  VSB - VISIBILITY
$$




USA.gov is the U.S. government's official web portal to all federal, state and local government web resources and services.